Main page
METAR-TAF:

METAR-TAF

Airports :

Bojnord Airport

Bojnourd, Iran

latitude: 37-28N, longitude: 057-20E, elevation: 1074 m

Current weather observation

The report was made 41 minutes ago, at 01:00 UTC
Wind 16 kt from the West/Northwest
Temperature 22°C
Humidity 50%
Pressure 1013 hPa
Visibility: 3000 m
sand,

METAR: OIMN 190100Z 30016KT 3000 SA NSC 22/11 Q1013

Time: 06:11 (01:41 UTC)


TAF: missing

Weather observations and forecasts of more than 4000 airports (METAR and TAF reports).

The available stations are represented by yellow and red dots on the map.

Hover mouse over dot to see the name of the station.

Then click to see weather observations and forecasts.

To change the map : click on the green buttons with a black cross to zoom in, on the green button with a dash to zoom out, or on the green arrows for adjacent maps.


METAR-TAF: